CZ-3B DEB, 42473

Orbit data source: Space-Track

CZ-3B DEB, 42473 is space debris in HEO originally from a launch on Mon, 19 Dec 2011 UTC launched from the Xichang Space Center, China (XSC). Debris objects in space refer to the collection of defunct objects orbiting the Earth. Examples of debris include non-operational satellites, rocket bodies, and fragments generated from explosions, collisions, or faulty payload assembly.

Loading next visibility...
Identifier
42473, 2011-077AN
Orbit
HEO
Country
Flag of CNCN / PRC
Related business
Manufacturer
CALT
Mission
Spacecraft
Bus & Motor
Unknown
Mass
Unknown
Launch date (UTC)
2011-12-19 (14 years ago)
Launch vehicle
Unknown
Launch site
Xichang Space Center, China (XSC)
Object type
Payload
Rocket body
Debris
Shape & HBR
Unknown
Radar Cross Section
Medium (>0.1 m² and <1 m²)

Expand to show TLE details & history
Last TLE update: 1 day ago

TLE from 1 day ago
0 CZ-3B DEB
1 42473U 11077AN  25257.96171354 -.00000157  00000-0  00000-0 0  9997
2 42473  23.0045 113.2321 7175017  16.8150 358.2696  1.69234915 58437
Epoch: 2025-09-14T23:04Z
TLE epoch observation values (Epoch: 2025-09-14T23:04:52.049Z)
Latitude
0.0001°
Longitude
132.89133°
Altitude
2,174.983 km
Speed
8.933 km/s
True Right ascension
07h 33m 07s
True Declination
0° 00' 00"
Sunlit
Object was in daylight at epoch
Visualization orbit readout
Latitude
Unknown
Longitude
Unknown
Altitude
Unknown
Speed
Unknown
Apparent Right ascension
Unknown
Apparent Declination
Unknown
Sunlit
N/A
Visualization observer readout
Local Sidereal Time
23:07:08
Azimuth
Unknown
Elevation
Unknown
Doppler factor
Unknown
Orbital elements
Apogee altitude
44,714.143 km
Perigee altitude
2,025.629 km
Semi-major axis
29,748.023 km
Eccentricity
0.7175
Inclination
23.0045°
RAAN
113.2321°
Arg. of periapsis
16.815°
True anomaly
345.04008°
Mean anomaly
358.2696°
Eccentric anomaly
353.90385°
Mean motion
0.42302 °/min
Orbital period
851.03 mins
BSTAR
0
Loading maneuver chart data...
Computing Atmospheric mass density...
Loading historical data...
Loading historical data...
Loading historical data...
Loading historical data...
Loading historical data...
Loading historical data...
Loading historical data...

Documentation

Showing up to 5 results
|